Regional Weather Roundup
Issued by NWS State College, PA

Home | Current Version | Previous Version | Text Only | Print | Product List | Glossary Off
Versions: 1 2 3 4 5 6 7 8 9 10 11 12 13 14 15 16 17 18 19 20 21 22 23 24 25 26 27 28 29 30 31 32 33 34 35 36 37 38 39 40 41 42 43 44 45 46 47 48 49 50

000
ASUS41 KCTP 232303
RWRCTP

REGIONAL WEATHER ROUNDUP
NATIONAL WEATHER SERVICE STATE COLLEGE PA
700 PM EDT TUE SEP 23 2014

Note: "fair" indicates few or no clouds below 12,000 feet with no
significant weather and/or obstructions to visibility.

* = STATION THAT DOES NOT REPORT PRECIPITATION /E.G. RAIN...SNOW...ETC/
    THUNDER OR FOG.

PAZ002>004-007>009-013>016-020>023-029>032-240000-
WESTERN PENNSYLVANIA

CITY           SKY/WX    TMP DP  RH WIND       PRES   REMARKS
ERIE           CLEAR     63  49  60 N3        30.36S
MEADVILLE      CLEAR     63  48  58 N5        30.36R
FRANKLIN*      CLEAR     61  46  59 CALM      30.37R
NEW CASTLE       N/A     63  50  62 CALM      30.36R
BEAVER COUNTY  CLEAR     64  46  52 CALM      30.35R
BUTLER*        CLEAR     63  46  55 E5        30.36S
PITTSBURGH INT PTCLDY    66  44  45 NE6       30.33F
PITTSBURGH     CLEAR     65  42  43 VRB3      30.33S
INDIANA*       CLEAR     64  48  55 CALM      30.38F
LATROBE        PTCLDY    64  48  55 N7        30.35R
WASHINGTON CO* CLEAR     61  48  63 CALM      30.35R
$$

PAZ004>006-010>012-017>019-024>028-033>037-041-042-045-046-049>053-240000-
CENTRAL PENNSYLVANIA

CITY           SKY/WX    TMP DP  RH WIND       PRES   REMARKS
BRADFORD       CLEAR     61  48  62 NW5       30.37R
DUBOIS         CLEAR     63  46  54 CALM      30.35R
CLEARFIELD     CLEAR     64  49  57 CALM      30.36R
JOHNSTOWN      CLEAR     60  44  55 NE3       30.35R
ALTOONA        CLEAR     62  47  57 CALM      30.35R
STATE COLLEGE  NOT AVBL
WILLIAMSPORT   CLEAR     63  54  72 CALM      30.33R
SELINSGROVE    CLEAR     58  53  84 CALM      30.34R
FT INDIANTOWN  CLEAR     64  51  64 NW1       30.33R
CAPITAL CITY   CLEAR     68  46  45 NW3       30.33R
HARRISBURG     PTCLDY    65  54  67 CALM      30.32R
YORK           PTCLDY    66  45  46 CALM      30.34R
$$

PAZ038>040-043-044-047-048-054-055-060>062-067>071-240000-
EASTERN PENNSYLVANIA

CITY           SKY/WX    TMP DP  RH WIND       PRES   REMARKS
SCRANTON       CLEAR     66  48  52 N5        30.34R
MOUNT POCONO   CLEAR     61  46  57 N5        30.36R
ALLENTOWN      CLEAR     67  43  41 CALM      30.32R
QUAKERTOWN*    CLEAR     64  48  55 CALM      30.34R
READING        CLEAR     69  44  40 CALM      30.32R
LANCASTER      CLEAR     67  43  41 CALM      30.33R
COATESVILLE    CLEAR     63  48  59 CALM      30.35R
POTTSTOWN      CLEAR     62  48  60 CALM      30.34R
BLUE BELL      CLEAR     59  52  77 CALM      30.32R
DOYLESTOWN     CLEAR     64  45  49 CALM      30.32R
WILLOW GROVE   NOT AVBL
NORTH PHILA    CLEAR     67  41  38 SE3       30.34R
PHILADELPHIA   MOCLDY    68  46  45 S7        30.34R
$$



USA.gov is the U.S. government's official web portal to all federal, state and local government web resources and services.